Location: Luxembourg
(49.6117°N, 6.1300°E)
Time: 19:23:05
(UTC+01:00)

BlueWalker 3 - Visible Passes

Search period start: 11 December 2025 00:00
Search period end: 21 December 2025 00:00
Orbit: 455 x 462 km, 53.2° (Epoch: 10 December)

Date Brightness Start Highest point End Pass type
(mag) Time Alt. Az. Time Alt. Az. Time Alt. Az.
11 Dec 4.1 17:19:44 10° W 17:22:51 27° SW 17:25:58 10° SSE visible
19 Dec 4.3 07:47:30 10° SSW 07:50:33 26° SE 07:53:37 10° E visible
20 Dec 4.5 07:12:49 10° S 07:15:37 21° SE 07:18:25 10° E visible
